Weather in Latakia

Syria     35°31′15″N   35°47′28″E
temp.,
°C
wind,
m/s
gust,
m/s
humid.,
%
clouds,
%
prec.,
mm/h
press.,
hPa
HPBL,
m
11 may, tue
tue1100:00+20e22600 0.0 100960
03:00+20ese22670 0.0 100894
06:00+20se33670 0.0 1009151
09:00+22s33580 0.0 1010334
12:00+22ssw33550 0.0 1010276
15:00+22wsw32530 0.0 1010269
18:00+23sw22510 0.0 1009174
21:00+22s12610 0.0 100920
12 may, wed
wed1200:00+21ese22560 0.0 100966
03:00+20ese22525 0.0 100972
06:00+20e22455 0.0 100982
09:00+21sse124225 0.0 1010156
12:00+22sw33575 0.0 1010279
15:00+22wsw33620 0.0 1010311
18:00+23sw22630 0.0 1009325
21:00+22s22750 0.0 101055
13 may, thu
thu1300:00+20ese11740 0.0 101074
03:00+20se22740 0.0 1010148
06:00+20se33730 0.0 1011187
09:00+21ssw3371100 0.0 1012366
12:00+22sw3373100 0.0 1012415
15:00+22wsw33700 0.0 1012395
18:00+22sw32680 0.0 1012368
21:00+22s22740 0.0 1013203
14 may, fri
fri1400:00+21se11730 0.0 1013156
03:00+20ese22790 0.0 1012142
06:00+19ese21790 0.0 1013114
09:00+21s22710 0.0 1014250
12:00+21wsw32730 0.0 1015295
15:00+22w33710 0.0 1014302
18:00+22wsw21670 0.0 1013250
21:00+22s11750 0.0 101462
15 may, sat
sat1500:00+21se11750 0.0 1014102
03:00+20ese22780 0.0 1013139
06:00+20ese22766 0.0 1013128
09:00+21ssw117193 0.0 1013275
12:00+21wsw337212 0.0 1013328
15:00+22sw33691 0.0 1012339
18:00+22ssw44680 0.0 1012388
21:00+21sse33760 0.0 1012204